LIMJLIPZ

Guest
Details From LIMJ - Genova Sestri
To LIPZ - Venezia Tessera
Flight Number -
Tags Generated
Created
Modified
Stats Distance 163 nm / 301 km
Max Altitude 0 ft / 0 m
Waypoints 2
Social Downloads 10
Likes 0
Share VATSIM

Download

Looking for another format? Having issues loading an existing format? Contact us
Advertisement - Login to hide

Notes

Generated

Route

LIMJ LIPZ

ID Type Via Altitude Latitude Longitude Leg Dist Tot Dist Heading (true) Name
O LIMJ APT - 0 ft / 0 m 44.41542˚ 8.82419˚ - 0 nm - -
O LIPZ APT - 0 ft / 0 m 45.49516˚ 12.33556˚ 162 nm 162 nm 65° / 68° -

Altitude Profile

Advertisement - Login to hide

Weather


0- 5 10 15 20 25 30 35+ Temperature / ° C

Clouds and Precipitation
Forecast for 2017-12-12 00:00 UTC. Updated 2 hours ago

Ground ~20,000 ft ~40,000 ft Winds

LIMJ

Details ICAO LIMJ (GOA)
Name Genova Sestri
Region Italy
Timezone Unknown (UTC+0.0)
Stats Elevation 13 ft / 4 m (AMSL)
Location 44.411957° 8.841866°
Runways 1
Magnetic Variation 2.387° E

METAR

LIMJ 120050Z 22016KT 5000 BR SCT010 BKN035 14/10 Q1000

Decode

TAF

TAF LIMJ 112300Z 1200/1224 21015G35KT 3000 RA BKN020 BKN050 BECMG 1200/1202 8000 NSW BECMG 1212/1214 20012KT

Decode

Departure Runways

ID Width Length Bearing (true) Bearing (mag) Surface Threshold Offset Overrun Length
10 148 ft / 45 m 9,574 ft / 2,918 m 105.39° 103.00° Asphalt 0 ft / 0 m 0 ft / 0 m
28 148 ft / 45 m 9,574 ft / 2,918 m 285.41° 283.02° Asphalt 538 ft / 164 m 0 ft / 0 m

LIPZ

Details ICAO LIPZ (VCE)
Name Venezia Tessera
Region Italy
Timezone Europe/Rome (UTC+1.0)
Stats Elevation 7 ft / 2 m (AMSL)
Location 45.504791° 12.349691°
Runways 2
Magnetic Variation 3.179° E

METAR

LIPZ 120050Z 17019G29KT 9999 BKN060 13/09 Q0998 NOSIG

Decode

TAF

TAF LIPZ 112300Z 1200/1306 16015G25KT 9999 BKN040 TEMPO 1200/1206 RA BECMG 1206/1208 19012KT

Decode

Destination Runways

ID Width Length Bearing (true) Bearing (mag) Surface Threshold Offset Overrun Length
04L 148 ft / 45 m 9,112 ft / 2,777 m 42.01° 38.83° Asphalt 312 ft / 95 m 0 ft / 0 m
04R 148 ft / 45 m 10,834 ft / 3,302 m 41.99° 38.81° Asphalt 0 ft / 0 m 0 ft / 0 m
22L 148 ft / 45 m 10,834 ft / 3,302 m 222.01° 218.83° Asphalt 0 ft / 0 m 0 ft / 0 m
22R 148 ft / 45 m 9,112 ft / 2,777 m 222.02° 218.84° Asphalt 0 ft / 0 m 0 ft / 0 m

Approach Navaids

Runway Type Ident Frequency Range Bearing (true) Bearing (mag) Slope Elevation
04R Localiser VTS 109.95 MHz 18 nm / 33 km 42.02° 38.84° - 13 ft / 4 m (AMSL)
04R Glidescope VTS 109.95 MHz 10 nm / 19 km 42.00° 38.82° 3.00° 52 ft / 16 m (AMSL)
04R DME VTS 109.95 MHz 18 nm / 33 km - - - 26 ft / 8 m (AMSL)

Popular Alternatives